Location: Kitchener
(43.4500°N, 80.5000°W)
Time: 01:13:59
(UTC-04:00)

N. Korean satellite - Visible Passes

Search period start: 24 September 2018 00:00
Search period end: 04 October 2018 00:00
Orbit: 458 x 511 km, 97.2° (Epoch: 23 September)

Date Brightness Start Highest point End Pass type
(mag) Time Alt. Az. Time Alt. Az. Time Alt. Az.
26 Sep 10.1 20:04:48 10° WSW 20:06:30 13° W 20:08:13 10° WNW visible
27 Sep 9.3 19:39:00 10° SSW 19:41:57 25° W 19:44:59 10° NW visible
29 Sep 10.4 06:41:12 10° ENE 06:42:54 13° E 06:44:35 10° ESE visible
30 Sep 10.0 20:00:25 10° SW 20:02:28 15° W 20:04:32 10° NW visible
01 Oct 9.1 19:34:48 10° SSW 19:37:55 28° W 19:41:06 10° NW visible
03 Oct 10.6 06:37:36 10° ENE 06:38:50 11° E 06:40:06 10° ESE visible
